Left ArrowRight Arrow

Hourly Observations for May 3, 2024

Temp ( °F °C ) Dew Point ( °F °C ) Humidity (%) Winds ( mph kmh ) Pressure ( in mb ) Visibility ( mi km ) Precip ( " mm )
12:53 am 00:53 Cloudy 74 23.3 68 20 82 82 SSE 7 11 29.76 1008 10 16 0.00 0.00
1:42 am 01:42 Cloudy 75 23.9 68 20 79 79 SSE 7 11 29.80 1009 10 16 0.00 0.00
1:53 am 01:53 Cloudy 74 23.3 69 20.6 85 85 SSE 6 9 29.80 1009 10 16 0.00 0.00
2:53 am 02:53 Mostly Cloudy 72 22 70 21 94 94 NE 5 7 29.75 1008 10 16 0.00 0.00
3:53 am 03:53 Partly Cloudy 72 22 68 20 88 88 ENE 5 7 29.76 1008 10 16 0.00 0.00
4:53 am 04:53 Partly Cloudy 70 21 68 20 94 94 N 3 6 29.78 1008 10 16 0.00 0.00
5:53 am 05:53 Mostly Clear 70 21 68 20 94 94 N 6 9 29.79 1009 10 16 0.00 0.00
6:53 am 06:53 Mostly Sunny 70 21.1 68 20 93 93 N 5 7 29.82 1010 10 16 0.00 0.00
7:53 am 07:53 Mostly Cloudy 72 22.2 69 20.6 91 91 NNE 6 9 29.83 1010 10 16 0.00 0.00
8:33 am 08:33 Mostly Cloudy 73 22.7 70 21.1 91 91 ENE 6 9 29.85 1011 10 16 0.00 0.00
8:53 am 08:53 Mostly Cloudy 73 22.7 70 21.1 91 91 SE 7 11 29.86 1011 10 16 0.00 0.00
9:30 am 09:30 Cloudy 73 22.7 70 21.1 91 91 ESE 8 13 29.88 1012 10 16 0.00 0.00
9:53 am 09:53 Cloudy 74 23.3 70 21.1 87 87 SE 13 20 29.89 1012 10 16 0.00 0.00
10:53 am 10:53 Mostly Cloudy 75 23.9 69 20.6 82 82 E 10 17 29.90 1013 10 16 0.00 0.00
11:53 am 11:53 Mostly Sunny 79 26.1 69 20.6 72 72 E 9 15 29.89 1012 10 16 0.00 0.00
12:53 pm 12:53 Partly Cloudy 80 26.7 69 20.6 69 69 ESE 8 13 29.87 1011 10 16 0.00 0.00
1:53 pm 13:53 Partly Cloudy 82 28 66 19 58 58 SE 10 17 29.86 1011 10 16 0.00 0.00
2:53 pm 14:53 Mostly Cloudy 83 28.3 67 19.7 60 60 SSE 9 15 29.86 1011 10 16 0.00 0.00
3:53 pm 15:53 Mostly Cloudy 82 27.8 67 19.4 60 60 S 13 20 29.85 1011 10 16 0.00 0.00
4:53 pm 16:53 Partly Cloudy 82 27.8 65 18.3 56 56 S 14 22 29.83 1010 10 16 0.00 0.00
5:53 pm 17:53 Cloudy 82 27.8 65 18.3 56 56 SSE 12 19 29.83 1010 10 16 0.00 0.00
6:53 pm 18:53 Cloudy 80 26.7 64 17.8 58 58 SSE 9 15 29.84 1010 10 16 0.00 0.00
7:53 pm 19:53 Cloudy 78 25.6 67 19.4 69 69 S 10 17 29.85 1011 10 16 0.00 0.00
8:53 pm 20:53 Cloudy 77 25 68 20 74 74 S 7 11 29.88 1012 10 16 0.00 0.00
9:29 pm 21:29 Cloudy with Thunderstorms 77 25 67 19.4 71 71 SW 9 15 29.90 1012 10 16 0.00 0.00
9:53 pm 21:53 Cloudy with Thunderstorms 75 23.9 68 20 79 79 SW 12 19 29.91 1013 10 16 0.01 0.13
10:36 pm 22:36 Cloudy with Light Rain 70 21.1 65 18.3 84 84 WSW 5 7 29.95 1014 10 16 0.01 0.25
10:53 pm 22:53 Cloudy with Light Rain 70 21.1 66 18.9 87 87 WSW 7 11 29.94 1014 5 8 0.03 0.76
11:53 pm 23:53 Mostly Cloudy with Light Rain 72 22 66 19 83 83 S 9 15 29.87 1012 10 16 0.00 0.00

Powered by Vaisala Xweather